Wind_Speed
15 16 16 15 14 14 14 14 13 13 13 13 13 12 12 12 12 12 11 11 12 12 12 12 11 11 11 12 12 13 13 13 14 14 15 15 16 16 17 17 18 19 20
15 16 16 16 16 15 15 15 14 14 14 14 14 13 13 13 13 13 12 13 13 13 13 13 13 13 13 13 14 14 14 14 15 16 16 17 18 18 18 19 20 20 21
16 16 17 17 17 16 16 15 15 15 15 15 15 14 14 14 14 14 14 13 14 14 14 15 15 15 15 15 15 15 15 16 16 17 17 18 19 20 20 21 22 22 23
16 16 17 17 17 17 17 16 16 16 16 16 15 15 15 15 15 15 15 15 15 15 15 16 16 17 16 16 16 16 17 17 18 19 19 20 21 21 22 23 24 24 25
16 17 16 16 17 17 17 17 17 17 16 16 16 16 15 15 15 15 15 16 16 16 17 17 17 17 18 18 18 18 18 19 19 20 21 22 22 23 23 24 25 26 27
16 16 17 17 17 17 17 17 18 17 17 17 17 17 17 16 16 16 16 17 17 18 18 18 19 19 20 20 20 20 21 21 21 22 22 22 23 24 24 26 27 27 29
17 17 17 18 18 18 18 19 19 18 18 18 18 18 17 17 17 17 18 18 18 18 18 18 19 20 21 21 21 21 22 22 22 23 23 24 25 26 27 28 29 30 31
18 17 18 18 19 19 19 20 20 19 19 19 18 18 18 17 17 18 18 18 17 18 18 20 21 21 22 22 22 22 23 23 24 24 25 26 27 28 28 29 30 31 32
18 18 18 18 19 19 19 19 19 19 19 19 18 19 18 18 18 18 18 18 19 19 20 21 21 22 23 23 23 24 24 25 25 26 26 27 28 29 30 31 31 32 34
18 19 19 19 19 19 18 18 19 19 19 19 19 19 19 18 18 18 18 19 19 19 20 21 22 22 23 23 24 25 25 25 26 27 28 29 30 31 32 32 33 34 36
18 17 18 18 18 18 18 18 19 19 19 19 19 19 19 19 19 19 19 20 20 20 21 21 22 23 23 24 24 25 25 26 27 28 29 30 31 32 33 34 35 37 38
19 19 19 19 19 19 19 18 18 18 18 18 19 19 19 19 19 20 20 21 21 22 22 22 23 24 24 25 26 26 27 27 28 29 30 31 32 33 34 35 37 38 39
20 20 20 20 20 19 19 19 20 20 19 19 19 19 20 19 19 20 20 21 22 22 22 23 24 24 25 25 26 27 28 28 29 30 31 32 33 34 35 36 37 39 41
20 21 21 21 21 21 21 20 20 20 20 20 20 19 19 19 20 21 21 22 22 22 23 23 24 24 24 25 26 27 28 29 30 31 32 33 34 35 36 37 39 40 41
20 21 21 22 22 22 22 21 21 21 22 21 21 20 21 21 21 22 22 22 23 24 24 24 24 25 26 26 27 28 28 29 30 31 33 34 34 35 37 38 39 40 42
21 20 21 21 21 22 22 22 23 23 23 22 22 22 23 23 23 23 23 23 24 24 24 25 25 26 27 28 28 29 30 31 32 33 34 35 36 37 38 39 40 41 43
21 21 20 20 21 22 22 22 22 23 24 24 24 23 23 24 24 24 24 24 25 26 26 26 27 27 28 29 30 30 31 32 33 34 35 36 37 38 39 40 42 43 44
22 22 22 21 21 21 22 22 23 23 23 24 24 24 23 24 24 24 24 25 26 26 27 28 28 29 30 30 31 32 33 33 34 35 36 37 38 39 40 41 42 43 44
23 23 23 23 23 22 23 23 23 23 23 23 23 24 25 25 25 26 26 27 27 28 28 29 30 31 31 32 33 33 34 34 35 36 38 38 39 40 41 42 43 44 44
25 25 25 24 24 23 23 23 24 24 24 24 24 25 26 26 26 27 27 28 29 29 30 30 31 32 33 33 34 34 35 35 36 38 38 39 39 40 41 42 43 44 44
25 25 26 25 25 24 24 24 25 25 25 26 26 26 27 27 27 28 28 29 30 30 31 31 32 33 33 34 35 35 36 36 37 38 39 40 41 42 42 43 44 44 44
26 26 26 25 25 26 26 26 26 26 27 27 28 28 28 28 28 29 29 30 31 32 32 33 34 34 34 35 35 36 36 37 38 39 40 41 42 43 43 43 43 44 44
27 27 26 26 26 27 27 28 28 28 28 28 29 29 29 29 29 30 31 32 32 32 33 34 34 35 35 36 36 37 38 38 39 40 41 42 43 43 43 43 43 43 43
28 27 27 27 27 27 28 28 29 29 29 30 30 31 31 31 32 32 33 33 33 33 34 34 35 35 36 37 37 38 39 39 40 41 42 42 43 43 43 43 44 44 44
28 28 28 28 28 29 29 29 30 30 31 31 31 31 32 33 34 34 34 34 35 35 35 36 37 37 37 37 38 39 40 40 41 42 42 43 43 43 43 43 43 44 44
29 29 29 29 29 29 30 30 31 31 31 31 32 32 33 33 34 34 35 35 35 35 36 37 38 38 38 38 39 39 40 41 42 43 43 43 43 43 43 43 44 44 44
Wind_Direction
253 254 255 255 256 259 261 263 266 267 267 269 272 273 274 276 276 276 278 276 278 281 285 286 287 287 289 294 299 301 301 301 303 304 305 305 306 307 308 309 309 309 310
256 256 256 257 257 259 261 263 265 267 268 270 272 271 272 273 274 275 277 278 279 279 282 284 286 286 289 292 295 297 299 301 301 302 303 304 305 306 306 307 308 308 307
260 260 258 258 258 257 259 262 265 267 269 270 270 270 271 273 275 277 280 280 280 281 282 283 285 286 289 291 292 295 296 298 299 300 301 302 303 305 306 306 307 306 306
260 260 259 259 258 256 258 260 263 265 268 268 268 269 270 273 276 279 278 280 281 281 282 283 285 286 288 290 291 292 293 294 296 298 299 300 301 303 304 305 306 306 305
260 259 259 261 257 254 258 261 263 264 265 266 267 269 270 273 274 274 277 279 281 281 282 284 285 287 289 290 290 290 291 292 294 297 299 300 301 302 303 305 305 306 306
259 259 258 258 255 255 258 261 261 264 265 265 267 269 270 271 271 274 276 279 281 283 282 283 286 288 289 289 290 290 291 292 294 295 297 299 300 301 303 305 306 306 306
255 256 257 254 253 254 257 261 262 265 266 265 267 268 269 270 271 275 278 278 281 283 283 285 286 287 288 289 289 290 291 293 294 295 298 298 299 300 303 304 305 305 306
257 255 256 255 254 256 257 259 261 264 266 265 264 265 267 270 273 276 278 280 284 284 285 287 288 289 289 288 288 289 291 293 295 296 297 298 299 300 302 304 304 305 306
260 258 257 255 256 257 258 259 261 264 265 265 265 264 265 271 275 277 281 283 285 285 287 288 288 289 288 288 289 290 291 292 295 296 296 297 299 301 302 304 305 305 306
262 258 256 256 257 259 259 261 261 264 265 266 266 267 268 271 275 277 281 284 285 288 290 289 289 289 290 290 291 292 292 293 294 294 296 298 300 301 303 304 305 305 306
260 257 256 256 257 258 258 263 263 264 266 268 268 270 272 273 274 276 280 283 285 288 289 291 291 290 291 291 293 294 293 294 296 296 297 299 301 302 303 304 305 306 307
260 260 259 257 259 259 258 262 262 263 266 270 271 270 273 274 274 277 281 284 286 288 289 290 291 292 292 292 293 295 295 295 297 298 298 300 301 303 303 304 306 307 307
258 258 259 258 260 260 259 261 262 262 264 268 273 275 275 275 275 277 282 285 287 289 289 291 292 292 293 294 295 297 297 297 297 298 300 301 302 302 303 305 306 308 308
261 258 258 257 259 258 258 262 262 262 264 268 272 276 276 275 278 280 282 285 287 288 290 292 294 295 296 297 298 299 300 300 299 300 301 302 303 304 305 306 307 308 309
264 261 260 259 258 258 259 262 263 263 265 268 271 274 276 276 278 280 283 285 286 287 289 293 295 296 297 298 299 301 302 302 303 302 302 303 304 305 307 307 308 308 309
263 263 261 259 258 259 260 262 264 264 264 265 269 273 274 276 278 281 282 283 285 287 289 292 294 296 297 298 299 300 301 302 303 304 305 305 305 306 307 308 308 309 310
263 264 264 262 261 262 262 263 265 265 265 266 269 272 273 275 278 280 281 283 285 288 289 291 293 294 296 297 299 300 301 302 303 305 305 305 306 307 308 309 309 310 311
263 264 265 265 265 265 264 265 266 266 267 267 268 271 274 276 278 280 281 283 286 289 290 291 292 294 295 297 299 300 301 303 304 306 306 306 306 307 308 309 310 311 311
261 263 265 266 267 267 267 267 267 267 267 268 270 273 274 276 279 281 282 284 286 288 290 291 292 294 296 297 299 301 302 303 304 305 306 307 307 308 309 309 310 311 312
261 263 264 266 267 267 268 267 267 267 268 269 272 274 275 277 280 281 282 284 286 288 290 291 292 294 296 297 298 300 302 303 304 304 306 307 308 309 310 310 311 312 312
261 263 264 265 266 266 267 268 268 269 269 271 273 275 276 278 280 281 282 285 287 289 291 292 293 294 296 297 298 299 301 302 304 305 305 306 308 309 309 310 311 312 312
261 262 264 265 266 267 267 269 269 270 271 273 274 275 278 280 280 280 283 285 287 289 289 290 292 294 295 297 298 300 301 302 302 303 304 306 307 308 309 310 311 312 312
260 262 263 265 266 267 267 268 270 272 274 275 276 277 279 281 283 283 284 286 287 289 289 290 292 293 295 296 298 299 300 301 301 302 303 305 307 308 309 310 311 312 312
260 262 264 265 267 268 268 269 271 272 274 275 277 278 278 280 283 284 284 285 287 288 290 291 293 294 294 296 297 299 301 301 302 303 305 306 307 308 309 310 311 312 313
261 263 264 265 266 268 269 270 272 273 275 276 277 278 278 279 282 283 283 284 286 288 289 291 293 294 295 296 298 299 300 301 302 303 305 306 307 308 309 310 311 313 314
262 263 265 266 267 268 270 272 274 275 275 276 278 278 279 280 282 283 284 285 287 289 290 292 293 294 295 296 297 298 299 300 301 303 304 305 307 308 309 309 311 313 314
Height
5843 5844 5845 5846 5848 5849 5849 5850 5851 5851 5852 5852 5852 5852 5853 5853 5853 5853 5853 5853 5853 5853 5853 5852 5852 5852 5851 5851 5850 5849 5848 5848 5847 5845 5844 5843 5842 5840 5838 5837 5835 5833 5831
5839 5840 5841 5842 5844 5845 5846 5846 5847 5848 5848 5849 5849 5850 5850 5850 5850 5850 5850 5850 5850 5850 5850 5849 5849 5849 5848 5847 5847 5846 5845 5844 5843 5842 5840 5839 5838 5836 5834 5833 5831 5828 5826
5836 5836 5837 5839 5840 5841 5842 5843 5843 5844 5845 5845 5846 5846 5846 5846 5847 5847 5847 5847 5846 5846 5846 5846 5846 5845 5845 5844 5843 5842 5841 5840 5839 5838 5836 5835 5833 5831 5830 5828 5826 5823 5821
5832 5832 5833 5834 5835 5837 5838 5839 5840 5840 5841 5842 5842 5842 5843 5843 5843 5843 5843 5843 5843 5843 5843 5842 5842 5841 5840 5840 5839 5838 5837 5836 5835 5833 5832 5830 5828 5826 5825 5822 5820 5818 5815
5827 5828 5829 5830 5831 5832 5834 5835 5836 5836 5837 5838 5838 5839 5839 5839 5839 5839 5839 5839 5839 5839 5838 5838 5837 5837 5836 5835 5834 5833 5832 5831 5830 5828 5827 5825 5823 5821 5819 5817 5814 5812 5809
5823 5824 5825 5825 5827 5828 5829 5830 5831 5832 5833 5833 5834 5834 5835 5835 5835 5835 5835 5835 5835 5834 5834 5833 5833 5832 5831 5830 5829 5828 5827 5826 5824 5823 5821 5819 5817 5815 5813 5810 5808 5805 5803
5818 5819 5820 5821 5822 5824 5825 5826 5827 5828 5828 5829 5829 5830 5830 5831 5831 5831 5831 5830 5830 5829 5829 5828 5827 5826 5825 5824 5823 5822 5821 5819 5818 5817 5815 5813 5811 5809 5807 5804 5801 5798 5795
5814 5815 5816 5817 5818 5819 5820 5821 5822 5823 5824 5824 5825 5825 5826 5826 5826 5826 5826 5826 5825 5825 5824 5823 5822 5821 5819 5818 5817 5816 5815 5813 5812 5810 5808 5806 5804 5802 5799 5797 5793 5790 5787
5809 5810 5811 5812 5813 5814 5815 5816 5817 5818 5819 5819 5820 5820 5821 5821 5822 5821 5821 5821 5820 5820 5819 5817 5816 5815 5813 5812 5811 5810 5809 5807 5805 5803 5801 5799 5796 5794 5791 5788 5785 5782 5779
5804 5805 5806 5807 5808 5809 5810 5811 5812 5813 5814 5814 5815 5816 5816 5816 5816 5816 5816 5815 5815 5814 5813 5812 5810 5809 5807 5806 5805 5804 5802 5800 5798 5796 5794 5791 5789 5786 5783 5780 5776 5773 5769
5799 5800 5800 5802 5803 5804 5805 5806 5807 5808 5809 5810 5810 5811 5810 5811 5811 5811 5810 5810 5810 5809 5808 5806 5804 5803 5801 5800 5798 5797 5795 5793 5791 5789 5786 5784 5781 5778 5774 5771 5767 5763 5759
5793 5794 5795 5796 5797 5798 5799 5801 5801 5803 5803 5804 5805 5805 5805 5805 5805 5805 5805 5804 5804 5803 5802 5800 5799 5797 5795 5793 5791 5790 5788 5786 5784 5781 5779 5776 5773 5770 5766 5762 5758 5753 5749
5787 5789 5790 5791 5792 5793 5794 5795 5796 5797 5798 5799 5799 5799 5799 5799 5799 5799 5799 5798 5797 5796 5795 5794 5792 5791 5789 5787 5785 5783 5780 5778 5776 5773 5770 5768 5764 5761 5757 5753 5749 5744 5739
5781 5782 5783 5785 5786 5787 5788 5789 5790 5791 5792 5793 5794 5794 5794 5794 5794 5793 5793 5792 5791 5790 5789 5788 5786 5784 5782 5780 5778 5776 5773 5771 5768 5765 5762 5759 5755 5752 5748 5744 5740 5735 5730
5775 5776 5777 5778 5779 5781 5782 5783 5784 5785 5786 5787 5788 5788 5788 5788 5788 5788 5787 5786 5785 5784 5782 5781 5779 5778 5776 5773 5771 5769 5766 5763 5760 5757 5754 5750 5747 5743 5739 5735 5730 5725 5720
5769 5770 5771 5772 5773 5774 5776 5777 5778 5779 5780 5780 5781 5782 5782 5782 5781 5781 5780 5779 5778 5777 5776 5775 5773 5771 5769 5767 5764 5761 5758 5755 5752 5749 5745 5742 5738 5734 5730 5725 5720 5715 5709
5763 5764 5765 5766 5767 5768 5769 5770 5771 5772 5773 5774 5774 5775 5775 5775 5774 5774 5773 5772 5771 5770 5769 5767 5765 5763 5761 5759 5756 5754 5751 5747 5744 5740 5737 5733 5729 5724 5720 5715 5710 5704 5698
5757 5758 5759 5759 5760 5761 5762 5763 5764 5765 5766 5767 5767 5768 5768 5767 5767 5766 5766 5765 5764 5763 5761 5760 5758 5756 5753 5751 5748 5745 5742 5739 5735 5731 5727 5723 5719 5714 5710 5705 5699 5693 5688
5750 5751 5752 5753 5754 5754 5755 5756 5757 5758 5759 5760 5760 5760 5760 5760 5759 5759 5758 5757 5756 5755 5753 5751 5749 5747 5745 5742 5740 5736 5733 5730 5726 5722 5718 5713 5709 5704 5699 5694 5689 5683 5677
5742 5744 5745 5745 5746 5747 5748 5749 5750 5751 5752 5752 5753 5753 5752 5752 5751 5750 5750 5749 5748 5746 5745 5743 5741 5739 5736 5733 5730 5727 5724 5720 5716 5712 5708 5704 5699 5694 5689 5684 5678 5672 5666
5735 5736 5737 5738 5739 5740 5740 5741 5742 5743 5744 5744 5745 5745 5744 5744 5743 5742 5741 5740 5739 5738 5736 5734 5732 5729 5727 5724 5721 5718 5714 5711 5707 5703 5698 5694 5689 5684 5678 5673 5667 5661 5655
5727 5728 5729 5730 5731 5732 5733 5734 5734 5735 5736 5736 5736 5736 5735 5735 5735 5734 5733 5731 5730 5728 5726 5724 5722 5720 5717 5714 5711 5708 5704 5700 5696 5692 5688 5683 5678 5673 5668 5662 5656 5650 5644
5719 5720 5721 5722 5723 5724 5725 5725 5726 5727 5727 5727 5727 5727 5726 5726 5725 5725 5723 5722 5720 5719 5716 5714 5712 5709 5707 5704 5701 5697 5694 5690 5686 5681 5677 5672 5667 5662 5657 5651 5645 5639 5633
5711 5712 5713 5714 5715 5716 5716 5717 5717 5718 5718 5718 5718 5717 5717 5716 5716 5715 5713 5712 5710 5708 5706 5704 5701 5699 5696 5693 5690 5686 5683 5679 5674 5670 5665 5661 5656 5651 5646 5640 5634 5628 5622
5703 5704 5705 5706 5706 5707 5708 5708 5708 5708 5708 5708 5708 5707 5707 5706 5705 5704 5703 5701 5699 5697 5695 5693 5691 5688 5685 5682 5679 5675 5671 5667 5663 5658 5654 5649 5644 5639 5634 5629 5623 5617 5611
5694 5695 5696 5697 5697 5698 5698 5699 5699 5699 5699 5698 5698 5697 5696 5696 5694 5693 5692 5690 5688 5686 5684 5682 5679 5676 5673 5670 5667 5663 5659 5655 5651 5646 5642 5637 5633 5628 5623 5617 5611 5606 5600